Regional Weather Roundup
Issued by NWS

Home | Current Version | Previous Version | Text Only | Print | Product List | Glossary On
Versions: 1 2 3 4 5 6 7 8 9 10 11 12 13 14 15 16 17 18 19 20 21 22 23 24 25 26 27 28 29 30 31 32 33 34 35 36 37 38 39 40 41 42 43 44 45 46 47 48 49 50
000
ASUS43 KMKX 211321
RWRWI

WISCONSIN REGIONAL WEATHER ROUNDUP
NATIONAL WEATHER SERVICE MILWAUKEE/SULLIVAN WI
800 AM CDT MON APR 21 2014

NOTE: "FAIR" INDICATES FEW OR NO CLOUDS BELOW 12,000 FEET WITH NO
SIGNIFICANT WEATHER AND/OR OBSTRUCTIONS TO VISIBILITY.

WIZ001-002-006>008-014>016-023>028-211400-
NORTHWEST WISCONSIN

CITY           SKY/WX    TMP DP  RH WIND       PRES   REMARKS
SUPERIOR ARPT  MOSUNNY   40  34  78 CALM      29.87F
ASHLAND        PTSUNNY   42  38  85 SW6       29.89S
HAYWARD        CLOUDY    42  39  89 CALM      29.90S FOG
SIREN          PTSUNNY   47  45  91 CALM      29.90R
RICE LAKE      FOG       51  50  96 CALM      29.92R VSB 1
LADYSMITH      CLOUDY    51  51  97 CALM      29.90S FOG
EAU CLAIRE     CLOUDY    54  53  97 NW7       29.90R FOG
MENOMONIE      CLOUDY    53  53  99 NW3       29.91R FOG
NEW RICHMOND   CLOUDY    55  54  95 W6        29.93R FOG
OSCEOLA        CLOUDY    53  52  97 SW3       29.94R
$$

WIZ003>005-009-010-017-018-211400-
NORTH CENTRAL WISCONSIN

CITY           SKY/WX    TMP DP  RH WIND       PRES   REMARKS
WOODRUFF       FOG       44  39  83 SE3       29.88F VSB<1/4
RHINELANDER    NOT AVBL
EAGLE RIVER    FOG       38  38 100 CALM      29.89F VSB<1/4
LAND O LAKES   FOG       37  37 100 CALM      29.90F VSB<1/4
PHILLIPS       FOG       47  47 100 CALM      29.87F VSB<1/4
TOMAHAWK       FOG       44  43  97 CALM      29.89S VSB<1/4
MEDFORD        FOG       50  50 100 CALM      29.88F VSB 1/4
MERRILL        CLOUDY    47  47 100 CALM      29.88F FOG
$$

WIZ029-030-035-036-043>047-211400-
CENTRAL WISCONSIN

CITY           SKY/WX    TMP DP  RH WIND       PRES   REMARKS
WAUSAU         CLOUDY    51  51 100 CALM      29.87F FOG
MOSINEE        MOSUNNY   52  52 100 CALM      29.90F FOG
MARSHFIELD     FOG       52  51  97 CALM      29.89F VSB 1/4
STEVENS POINT  CLOUDY    50  50 100 CALM      29.91S FOG
WAUPACA        FOG       54  52  94 CALM      29.92R VSB 1
WAUTOMA        CLOUDY    53  52  97 SW3       29.93R FOG
WISC RAPIDS    CLOUDY    53  52  96 S3        29.92S FOG
CAMP DOUGLAS   CLOUDY    55  55 100 S5        29.92S
$$

WIZ011>013-019>022-031-037>040-048>050-211400-
NORTHEAST WISCONSIN

CITY           SKY/WX    TMP DP  RH WIND       PRES   REMARKS
ANTIGO         FOG       45  45 100 CALM      29.90S VSB 1/2
STURGEON BAY   CLOUDY    46  45  93 CALM      29.91F
GREEN BAY      FOG       49  49 100 S3        29.91F VSB 3/4
MANITOWOC      CLOUDY    51  48  89 CALM      29.91F FOG
APPLETON       CLOUDY    52  50  93 VRB5      29.89F FOG
CLINTONVILLE   FOG       50  50 100 S5        29.90S VSB 3/4
OSHKOSH        CLOUDY    54  49  83 S7        29.91R HAZE
$$

WIZ032>034-041-042-053>061-211400-
SOUTHWEST WISCONSIN

CITY           SKY/WX    TMP DP  RH WIND       PRES   REMARKS
LA CROSSE      LGT RAIN  55  54  96 S3        29.92R FOG
SPARTA         LGT RAIN  54  52  94 CALM      29.93S
VIROQUA        FAIR      56  56 100 W5        29.94R
BOSCOBEL       CLOUDY    55  53  93 CALM      29.93S FOG
PRAIRIE DU CHI DRIZZLE   53  52  97 CALM      29.92S
PLATTEVILLE    FAIR      58  52  79 CALM      29.93S
$$

WIZ056-057-062-063-064-067-068-211400-
SOUTH CENTRAL WISCONSIN

CITY           SKY/WX    TMP DP  RH WIND       PRES   REMARKS
BARABOO/DELLS  PTSUNNY   56  53  91 CALM      29.94R
LONE ROCK      CLOUDY    57  55  93 CALM      29.93R FOG
WATERTOWN      MOSUNNY   59  50  72 CALM      29.91S
MADISON        PTSUNNY   60  53  77 CALM      29.92S
MIDDLETON      PTSUNNY   60  53  77 NE5       29.92F
MONROE         CLOUDY    60  47  61 S8        29.91S
JANESVILLE     PTSUNNY   61  48  63 S5        29.91F
$$

WIZ051-052-058>065-066-070>072-211400-
SOUTHEAST WISCONSIN

CITY           SKY/WX    TMP DP  RH WIND       PRES   REMARKS
MILWAUKEE      PTSUNNY   63  46  54 SW3       29.93R
WAUKESHA       SUNNY     57  52  82 W9        29.93F
MILWAUKEE/TIMM SUNNY     61  48  63 W3        29.93S
RACINE         CLOUDY    63  45  51 SW9       29.93F
BURLINGTON     CLOUDY    62  46  56 SW9       29.92F
KENOSHA        PTSUNNY   63  45  51 SW9       29.92F
FOND DU LAC    CLOUDY    52  48  86 S5        29.90F FOG
SHEBOYGAN      CLOUDY    56  48  74 W3        29.91F
WEST BEND      CLOUDY    59  46  63 CALM      29.91F
JUNEAU         PTSUNNY   56  50  80 CALM      29.92F
$$

LSZ147-162-211400-
LAKE SUPERIOR

STATION/POSITION TIME  TEMP    WIND        PRES    WAVE
                       AIR SEA DIR/SP/G            HT/PER
                 (UTC) (F)     (DEG/KT/KT) (MB)    (FT/S)
DEVILS ISLAND    1300   38     230/  4/  5 1012.4F
PORT WING        1240   37     210/  2/  4 1012.2F
SAXON HARBOR     1200          290/  3/  7 1011.5S
$$

LMZ867-665-643>646-211400-
LAKE MICHIGAN

STATION/POSITION TIME  TEMP    WIND        PRES    WAVE
                       AIR SEA DIR/SP/G            HT/PER
                 (UTC) (F)     (DEG/KT/KT) (MB)    (FT/S)
NORTHPORT PIER   1200   37     320/  3/  4 1013.5S
SISTER BAY       1209   35        CALM       N/A
KEWAUNEE LAKESHO 1200   39     290/  3/  4 1014.1F
SHEBOYGAN LAKESH 1300   50     360/  2/  2 1013.2F
PORT WASHINGTON  1200   56      CALM  /  1 1013.9S
MILWAUKEE LAKESH 1300   58      40/  3/  6   N/A
KENOSHA   LAKESH 1300   52     190/  8/  9   N/A
$$

TC  - TEMPERATURE IN CELSIUS
VSB - VISIBILITY IN STATUTE MILES
WCI - WIND CHILL INDEX
HX  - HEAT INDEX




USA.gov is the U.S. government's official web portal to all federal, state and local government web resources and services.